NZWNNZQN

Guest
Details From NZWN - Wellington Intl
To NZQN - Queenstown
Flight Number -
Tags decoded
Created
Modified
Stats Distance 348 nm / 644 km
Max Altitude 0 ft / 0 m
Waypoints 4
Social Downloads 0
Likes 0
Share VATSIM

Download

Looking for another format? Having issues loading an existing format? Contact us
Advertisement - Login to hide

Notes

Requested: NZWN PEGSA ANODO ELRUV ELRUV NZQN Unmatched points: ELRUV ELRUV

Route

NZWN PEGSA ANODO NZQN

ID Type Via Altitude Latitude Longitude Leg Dist Tot Dist Heading (true) Name
O NZWN APT - 0 ft / 0 m -41.32684˚ 174.80684˚ - 0 nm - Wellington Intl
PEGSA FIX - 0 ft / 0 m -41.49860˚ 174.75917˚ 10 nm 10 nm 192° / 192° -
ANODO FIX - 0 ft / 0 m -41.55539˚ 174.65428˚ 5 nm 16 nm 234° / 234° -
O NZQN APT - 0 ft / 0 m -45.02055˚ 168.74540˚ 331 nm 347 nm 229° / 233° Queenstown

Altitude Profile

Advertisement - Login to hide

Weather


0- 5 10 15 20 25 30 35+ Temperature / ° C

Clouds and Precipitation
Forecast for 2018-05-28 00:00 UTC. Updated 2 hours ago

Ground ~20,000 ft ~40,000 ft Winds

NZWN

Details ICAO NZWN (WLG)
Name Wellington Intl
Region New Zealand and Antarctica
Timezone Pacific/Auckland (UTC+12.0)
Stats Elevation 42 ft / 13 m (AMSL)
Location -41.326843° 174.806842°
Runways 1
Magnetic Variation 22.617° E

METAR

Not found

TAF

TAF NZWN 272314Z 2800/2900 18035G50KT 9999 -SHRA FEW020 BKN035 TEMPO 2800/2802 5000 SHRA SCT020TCU TEMPO 2802/2814 7000 SHRA BECMG 2804/2806 18025G40KT BECMG 2810/2812 20020G30KT

Decode

Departure Runways

ID Width Length Bearing (true) Bearing (mag) Surface Threshold Offset Overrun Length
16 148 ft / 45 m 6,555 ft / 1,998 m 182.80° 160.18° Asphalt 200 ft / 61 m 197 ft / 60 m
34 148 ft / 45 m 6,555 ft / 1,998 m 2.80° 340.18° Asphalt 351 ft / 107 m 197 ft / 60 m

NZQN

Details ICAO NZQN (ZQN)
Name Queenstown
Region New Zealand and Antarctica
Timezone Pacific/Auckland (UTC+12.0)
Stats Elevation 1,171 ft / 357 m (AMSL)
Location -45.020546° 168.745402°
Runways 3
Magnetic Variation 24.450° E

METAR

Not found

TAF

TAF NZQN 271715Z 2718/2812 03008KT 9999 SCT045

Decode

Destination Runways

ID Width Length Bearing (true) Bearing (mag) Surface Threshold Offset Overrun Length
05L 121 ft / 37 m 2,516 ft / 767 m 75.96° 51.51° Grass 0 ft / 0 m 0 ft / 0 m
05R 116 ft / 35 m 6,056 ft / 1,846 m 75.96° 51.51° Asphalt 367 ft / 112 m 0 ft / 0 m
14 167 ft / 51 m 3,157 ft / 962 m 161.16° 136.71° Grass 33 ft / 10 m 0 ft / 0 m
23L 116 ft / 35 m 6,056 ft / 1,846 m 255.94° 231.49° Asphalt 187 ft / 57 m 0 ft / 0 m
23R 121 ft / 37 m 2,516 ft / 767 m 255.96° 231.51° Grass 0 ft / 0 m 0 ft / 0 m
32 167 ft / 51 m 3,157 ft / 962 m 341.16° 316.71° Grass 66 ft / 20 m 0 ft / 0 m

Popular Alternatives